GSAT0101 (PRN E11)

Last updated on Nov. 21, 2019, 4:16 a.m. UTC

1 37846U 11060A   19324.54168158 -.00000071  00000-0  00000+0 0  9991
2 37846  56.4901  47.0672 0002007 303.5121  56.4934  1.70475348 50325
UTC
Height (km)
Latitude
Longitude
Inclination
Orbital Period
UTC large
Height (km)
Speed (km/s)
/
Latitude / Longitude
Inclination (degrees)
Orbital Period (minutes)
Azimuth
Elevation
Range (km)
Doppler Factor
iOS Compass Heading
iOS Angle

Next 30 passes for location: Hong Kong

Rise time Rise Azimuth (degrees) Set time Set Azimuth (degrees) Duration Max altitude (degrees)

No matching passes for this satellites